Vorticity
2 2 2 2 2 2 2 3 3 4 6 9 12 14 16 16 15 14 14 15 15 15 15 15 14 13 13 12 11 11 11 11 11 9 7 7 6 6 9 16 29 34 27 5 -9 -13 -10 -6 -6 -1 4 7 1 -4 -3 4 12 11 7 5 8 12 13 9 5 4 4 4 3
2 2 2 2 2 2 2 3 3 4 4 6 9 12 15 16 15 14 13 12 13 13 13 13 13 13 13 12 12 11 11 11 11 9 7 6 6 4 4 5 13 23 30 26 15 8 4 3 0 1 4 7 6 3 -2 -3 3 6 8 8 6 6 7 5 4 4 5 4 4
4 4 4 4 3 3 4 4 4 4 4 4 5 7 10 14 15 15 14 12 12 11 11 12 12 12 12 13 12 12 12 12 11 10 10 9 8 7 6 4 5 10 18 25 25 23 19 15 13 12 12 11 11 8 5 0 -0 2 5 6 3 3 4 4 5 6 6 6 4
5 4 4 4 4 4 4 4 4 5 5 5 4 5 7 10 13 15 16 14 12 10 10 10 10 10 11 11 12 12 12 12 12 12 11 11 10 10 9 7 4 4 6 10 15 18 19 19 19 19 18 16 15 14 12 7 2 1 1 2 1 1 2 4 6 8 9 9 6
5 5 4 4 3 3 3 4 4 5 6 6 5 5 6 7 10 13 16 17 15 12 10 9 8 8 9 9 10 11 12 12 12 12 12 12 12 11 10 10 7 6 5 6 8 9 9 9 11 13 14 16 16 17 16 14 9 5 2 0 -1 -2 -2 0 2 5 8 11 10
5 5 5 4 4 3 4 4 5 5 5 5 5 5 6 6 8 10 13 16 17 17 15 12 10 8 8 8 8 9 10 11 12 12 13 13 13 12 11 10 9 7 6 6 7 6 4 2 4 7 11 14 16 16 15 13 10 6 4 4 2 -0 -2 -2 -1 1 4 9 11
5 5 5 5 4 4 4 4 4 4 4 3 3 4 5 6 6 8 9 12 16 18 20 19 16 13 10 8 8 8 9 10 10 11 12 13 13 12 12 10 9 7 5 4 4 4 4 4 6 8 11 13 14 14 13 10 10 8 7 7 6 4 2 1 -0 0 2 6 11
5 5 5 4 4 4 4 4 4 4 4 4 4 4 4 4 5 6 7 8 10 13 17 20 21 19 17 13 10 9 9 9 10 10 11 12 12 12 12 11 9 7 5 3 3 4 5 7 10 12 13 15 16 16 15 14 13 13 13 12 10 9 7 6 4 2 3 6 12
6 6 5 4 4 4 4 4 4 4 4 4 4 4 3 4 4 4 4 4 5 6 9 14 18 21 22 20 16 13 11 10 10 10 10 11 11 12 11 11 9 7 5 4 3 4 7 9 12 13 14 15 16 16 17 18 18 18 17 16 13 13 12 10 8 6 6 9 15
8 7 6 6 5 4 4 4 4 4 4 4 4 3 3 2 2 2 1 1 0 1 3 6 10 15 19 22 20 17 14 12 11 10 10 10 11 11 11 10 9 8 6 5 4 5 6 9 11 11 10 8 8 12 17 21 20 20 18 17 15 14 13 11 8 7 9 15 17
8 8 7 7 6 5 4 4 4 4 4 4 3 3 2 1 1 1 1 0 0 0 1 2 5 9 13 18 20 19 18 15 13 11 11 10 10 11 10 10 10 9 8 7 5 4 5 9 11 10 7 2 2 7 14 19 19 18 18 17 16 15 13 11 10 12 16 19 17
7 7 7 7 6 6 5 5 4 4 4 4 3 3 2 2 1 1 1 1 2 2 3 3 5 7 10 14 17 18 18 16 14 12 11 11 11 10 10 10 10 9 9 7 6 5 7 12 13 10 4 -1 1 5 8 10 11 13 16 18 19 19 18 18 20 22 22 19 14
6 7 7 7 6 6 6 6 6 6 5 4 4 4 4 4 3 2 2 1 2 3 4 6 7 8 11 13 15 16 16 15 13 12 11 11 11 10 10 10 10 10 9 8 8 9 10 13 11 7 2 1 5 7 7 6 5 7 11 16 20 21 21 21 20 19 16 13 14
6 6 6 6 6 6 7 7 7 7 6 6 6 6 6 6 5 3 1 0 1 3 5 7 8 10 11 13 14 15 14 13 12 12 11 11 11 11 10 10 10 10 10 9 10 11 11 10 7 6 5 8 12 12 10 8 7 7 9 14 18 20 19 16 11 8 8 13 16
6 6 6 6 6 7 7 8 7 7 6 6 6 7 7 7 5 2 -0 -1 2 4 7 8 9 10 12 13 14 14 13 12 12 11 11 11 11 11 11 11 10 10 10 11 11 11 10 9 9 10 12 14 13 12 11 10 10 11 13 17 19 18 15 10 6 7 10 13 11
7 6 5 5 5 4 4 3 1 -0 -1 -0 2 4 6 6 3 -1 -3 -1 3 6 8 9 10 10 11 13 14 14 13 12 11 10 11 11 12 12 11 11 11 11 11 12 12 11 9 9 11 13 14 11 8 7 8 10 13 16 18 20 18 14 10 8 9 10 10 7 8
10 9 8 6 4 3 2 0 -2 -5 -7 -8 -6 -3 1 4 1 -3 -5 -1 5 8 10 10 10 10 11 13 14 15 14 13 11 10 10 11 12 12 12 12 12 12 13 13 12 10 8 8 12 13 10 5 4 5 8 12 17 19 19 16 12 9 7 8 10 9 7 7 8
19 20 20 19 19 19 18 17 14 10 4 -2 -8 -10 -8 -4 -3 -4 -3 1 6 8 10 10 10 10 11 13 15 16 15 13 11 10 10 11 12 12 12 12 12 13 13 13 10 6 5 10 15 14 10 6 5 6 9 14 18 18 15 10 6 5 5 6 7 7 6 6 6
24 26 28 29 30 30 32 34 34 31 26 17 5 -4 -8 -7 -3 0 3 5 7 9 10 11 11 11 12 13 15 16 15 13 11 10 10 10 11 12 12 12 12 13 13 12 6 2 3 11 18 19 16 10 7 7 8 13 16 14 10 6 4 4 4 6 6 7 6 6 6
21 21 21 20 19 20 22 26 31 34 35 32 26 19 13 10 11 11 10 8 9 10 12 13 13 13 13 14 15 15 14 13 11 10 10 10 11 12 12 13 13 14 13 11 4 0 1 9 17 19 17 12 8 6 8 14 16 14 10 6 5 5 6 7 7 7 7 7 8
18 17 16 14 11 10 10 12 16 21 25 29 30 29 26 23 19 15 12 10 11 12 13 14 14 14 15 15 16 15 14 12 11 10 10 10 11 12 13 14 14 14 13 11 7 1 -1 3 11 15 14 10 6 7 10 17 20 19 15 10 9 8 8 8 7 6 6 8 9
19 18 18 17 15 14 13 13 13 15 16 18 20 20 19 17 15 13 12 12 13 13 14 15 15 15 15 15 15 14 13 12 11 10 10 10 11 12 13 13 12 12 11 12 10 5 0 -0 5 8 10 8 6 8 13 20 23 22 18 14 13 12 10 7 5 5 7 10 12
16 17 17 17 17 17 16 16 15 15 15 15 14 14 14 13 13 13 13 13 14 14 15 16 16 16 15 15 15 14 13 13 11 10 10 10 11 12 12 11 10 11 12 13 13 9 4 -0 0 3 7 10 11 13 15 19 21 20 18 15 13 10 7 3 3 6 10 13 15
12 12 13 13 13 14 14 15 16 17 18 18 18 18 18 18 18 17 17 16 16 16 16 16 16 15 14 14 15 14 13 12 10 10 10 12 12 11 10 9 10 12 13 14 14 11 6 0 -0 4 10 16 18 19 18 18 16 15 13 10 7 4 2 2 5 9 12 14 15
12 12 12 13 13 14 16 18 21 23 25 25 25 25 24 23 22 22 21 20 20 19 18 17 15 14 13 13 14 14 13 12 11 11 11 13 12 9 7 7 9 12 13 14 12 9 5 1 4 9 16 21 21 20 17 14 12 10 7 5 4 4 4 5 9 12 14 15 15
16 15 15 16 17 19 22 25 27 28 29 29 28 27 25 22 21 20 21 21 22 22 21 20 19 17 16 15 14 14 14 13 13 13 12 10 8 7 7 8 10 12 12 10 7 4 3 5 11 16 19 19 15 12 10 9 8 6 6 5 7 8 9 10 13 15 16 17 16
17 17 17 18 20 22 24 26 26 27 27 28 27 26 23 20 18 17 17 18 18 17 17 18 19 20 20 20 18 17 16 14 13 12 10 7 6 7 9 12 13 12 10 6 3 4 7 13 17 18 16 12 9 8 9 9 9 8 8 10 11 13 14 15 16 17 17 16 15
16 16 17 18 20 21 22 21 21 22 23 24 24 23 21 19 17 15 13 10 8 9 11 14 16 18 21 23 24 22 20 15 12 9 6 4 5 8 12 14 13 10 6 3 4 7 12 16 15 14 12 12 12 13 13 14 15 16 16 16 17 18 19 20 19 17 15 13 12
16 16 17 18 19 19 18 18 19 20 21 22 21 19 17 16 15 13 11 8 6 6 6 5 7 10 14 17 20 20 19 16 12 8 6 4 6 9 12 13 9 6 3 1 5 9 12 14 14 15 16 16 15 15 16 19 21 22 22 22 22 22 20 18 16 13 12 10 10
16 17 18 19 19 18 18 18 18 20 20 20 18 16 14 12 12 11 10 9 10 9 7 3 1 1 2 4 8 11 14 15 13 11 8 7 8 8 7 6 3 2 2 3 7 12 17 20 21 20 18 16 16 17 19 22 24 25 24 22 20 18 15 13 12 11 10 10 10
17 18 19 20 20 20 18 18 18 18 18 17 16 14 13 11 11 10 9 10 11 11 10 9 8 6 4 2 3 6 8 11 12 12 11 9 6 4 2 1 2 5 9 14 20 24 27 26 23 21 19 19 21 23 25 26 24 22 19 16 14 13 12 11 11 10 10 10 10
17 17 18 20 20 19 18 17 17 17 17 16 14 13 12 11 10 10 11 13 14 14 14 14 13 12 11 10 8 8 8 9 10 9 7 4 2 2 4 7 13 20 26 32 34 34 31 27 24 23 23 25 26 26 25 23 19 16 13 12 11 10 10 9 8 8 8 7 6
15 14 14 14 14 14 15 16 17 18 18 17 15 13 12 10 10 12 14 17 18 17 16 15 14 13 12 12 11 10 8 7 5 3 2 2 5 10 17 25 32 37 40 40 37 33 28 25 25 25 25 25 24 21 18 14 12 10 9 8 7 7 6 6 6 6 6 6 6
14 11 8 8 7 8 10 13 15 16 16 15 15 14 13 11 10 11 14 17 18 17 15 13 12 10 10 9 8 6 4 2 1 2 5 10 18 27 34 41 43 42 40 35 30 27 24 23 23 22 20 17 14 11 9 7 6 6 5 5 5 5 5 5 5 6 7 8 9
16 12 8 6 5 5 7 10 11 11 11 12 14 15 15 14 13 13 13 14 14 13 12 10 9 8 8 8 7 6 5 5 7 12 19 28 35 40 43 43 39 34 30 26 23 21 19 17 15 12 10 7 6 5 4 4 4 4 4 4 5 5 6 7 8 8 9 9 9
22 18 13 10 9 9 10 12 10 10 11 13 16 17 18 17 16 14 13 12 13 11 9 8 8 10 11 12 13 14 16 19 25 31 37 42 43 42 38 33 27 23 20 17 15 12 10 7 6 4 4 3 3 3 4 4 4 5 5 6 7 8 8 9 9 9 9 8 8
28 24 21 18 17 17 17 15 14 14 17 19 19 19 18 17 16 15 14 15 15 14 14 14 17 21 24 27 29 32 35 39 43 45 44 42 36 30 23 17 13 10 9 7 6 4 4 3 3 3 3 4 4 4 5 6 6 7 8 8 9 9 9 8 8 7 7 6 6
29 28 27 25 24 22 20 17 18 20 22 21 20 18 18 18 17 18 20 22 24 25 27 30 34 38 41 43 44 46 47 47 43 38 31 24 18 13 8 6 4 3 3 3 3 3 3 4 4 4 5 6 6 7 7 8 8 8 9 8 8 8 7 7 6 6 6 6 6
29 30 30 29 27 25 23 22 23 23 22 21 20 21 23 25 25 27 29 32 34 37 40 44 46 46 45 44 43 40 35 30 23 17 11 7 5 4 4 3 2 2 3 3 4 4 5 6 6 6 7 8 8 8 8 8 8 8 7 7 6 6 6 6 5 5 5 5 5
35 35 35 34 33 31 30 30 29 28 27 27 27 29 30 32 32 33 35 37 37 38 39 39 36 33 30 26 22 17 13 9 6 4 3 3 3 3 4 4 4 4 5 5 6 7 7 7 8 8 8 8 8 7 7 7 6 6 6 6 5 5 5 5 5 5 5 5 5
43 43 43 42 41 40 39 37 35 34 33 33 32 31 30 29 29 29 29 28 27 25 23 20 17 13 10 8 6 4 3 2 3 3 4 4 4 5 6 6 6 6 6 7 7 7 7 8 7 7 7 7 6 6 6 6 6 5 5 5 5 5 4 4 4 5 5 5 5
Height
3077 3077 3077 3077 3077 3077 3077 3078 3078 3078 3079 3078 3079 3079 3079 3079 3079 3079 3080 3080 3080 3080 3080 3081 3082 3082 3083 3083 3084 3084 3085 3085 3086 3086 3087 3087 3087 3088 3088 3087 3087 3088 3088 3088 3088 3089 3089 3090 3091 3091 3092 3093 3094 3095 3096 3096 3096 3095 3095 3095 3095 3095 3095 3095 3094 3094 3095 3095 3095
3075 3075 3075 3075 3075 3075 3075 3075 3075 3076 3076 3076 3076 3076 3077 3077 3077 3077 3077 3078 3078 3078 3078 3079 3079 3079 3080 3080 3081 3082 3082 3083 3083 3083 3083 3084 3085 3085 3086 3086 3086 3086 3086 3086 3087 3087 3088 3088 3089 3089 3089 3090 3091 3092 3093 3094 3094 3094 3093 3093 3093 3093 3093 3092 3092 3092 3092 3092 3093
3073 3073 3073 3073 3073 3073 3073 3073 3073 3073 3074 3074 3074 3074 3074 3074 3074 3075 3075 3075 3075 3076 3076 3076 3076 3077 3077 3078 3078 3079 3079 3080 3080 3081 3081 3082 3082 3083 3084 3085 3085 3085 3085 3085 3085 3085 3086 3086 3087 3087 3087 3087 3088 3089 3090 3090 3091 3091 3090 3090 3091 3091 3090 3090 3090 3089 3089 3089 3089
3071 3071 3071 3071 3071 3071 3071 3071 3071 3071 3071 3071 3071 3071 3072 3072 3072 3072 3073 3073 3073 3073 3073 3073 3074 3074 3074 3075 3075 3076 3077 3077 3078 3078 3079 3079 3080 3081 3081 3082 3083 3083 3083 3083 3083 3083 3084 3084 3084 3084 3084 3084 3085 3085 3086 3087 3088 3088 3087 3087 3088 3088 3088 3088 3087 3087 3087 3086 3086
3069 3069 3069 3069 3069 3069 3069 3069 3069 3069 3069 3069 3069 3069 3069 3069 3070 3070 3070 3070 3070 3070 3071 3071 3071 3071 3072 3072 3073 3073 3074 3074 3075 3075 3076 3077 3078 3078 3079 3080 3080 3080 3080 3080 3080 3080 3081 3081 3081 3081 3081 3082 3082 3083 3083 3084 3084 3084 3084 3085 3085 3085 3085 3085 3085 3084 3084 3084 3083
3066 3066 3066 3066 3066 3066 3066 3066 3066 3066 3066 3066 3067 3067 3067 3067 3067 3068 3068 3067 3068 3068 3068 3068 3068 3069 3069 3069 3070 3070 3071 3071 3072 3073 3074 3074 3075 3075 3076 3077 3077 3078 3078 3077 3077 3077 3078 3078 3078 3078 3079 3079 3079 3080 3080 3081 3081 3081 3081 3082 3082 3082 3082 3082 3081 3081 3081 3080 3080
3064 3064 3064 3064 3064 3064 3064 3064 3064 3064 3064 3064 3064 3064 3064 3065 3065 3065 3065 3065 3065 3065 3065 3065 3065 3066 3066 3067 3067 3068 3068 3069 3069 3070 3071 3072 3072 3073 3074 3074 3074 3074 3074 3074 3074 3074 3074 3074 3075 3075 3076 3076 3077 3077 3077 3078 3078 3078 3078 3078 3078 3079 3079 3079 3079 3078 3078 3077 3077
3061 3061 3061 3061 3061 3061 3061 3061 3061 3061 3061 3061 3062 3062 3062 3062 3062 3063 3063 3063 3063 3063 3063 3063 3063 3064 3064 3064 3065 3065 3066 3066 3067 3068 3068 3069 3069 3070 3070 3071 3071 3071 3071 3071 3071 3071 3071 3072 3072 3072 3073 3073 3074 3074 3074 3075 3075 3075 3075 3075 3075 3076 3076 3075 3075 3075 3075 3075 3074
3059 3059 3059 3059 3059 3059 3059 3059 3059 3059 3059 3059 3059 3059 3059 3060 3060 3060 3060 3060 3060 3061 3061 3061 3061 3061 3061 3062 3062 3063 3064 3064 3064 3065 3066 3066 3067 3067 3067 3068 3068 3068 3068 3068 3068 3068 3069 3069 3069 3069 3070 3071 3071 3072 3072 3072 3072 3072 3072 3072 3072 3072 3072 3072 3072 3072 3072 3072 3072
3056 3056 3056 3056 3056 3056 3056 3056 3056 3056 3056 3056 3056 3057 3057 3057 3057 3058 3058 3058 3059 3059 3059 3059 3059 3059 3059 3059 3060 3060 3061 3062 3062 3063 3063 3064 3064 3064 3064 3064 3065 3065 3065 3065 3065 3066 3066 3066 3067 3067 3067 3068 3069 3069 3069 3069 3069 3069 3069 3069 3069 3069 3069 3069 3070 3070 3070 3070 3069
3053 3054 3054 3053 3053 3053 3053 3053 3053 3053 3053 3054 3054 3054 3054 3054 3055 3055 3055 3056 3056 3056 3057 3057 3057 3057 3057 3057 3057 3058 3059 3059 3060 3060 3060 3060 3061 3061 3061 3062 3062 3062 3063 3063 3063 3064 3064 3064 3065 3065 3065 3065 3066 3067 3066 3067 3067 3066 3066 3066 3066 3066 3066 3067 3067 3068 3067 3067 3067
3050 3050 3050 3050 3050 3050 3050 3050 3050 3050 3050 3050 3051 3051 3051 3052 3052 3053 3053 3054 3054 3054 3054 3054 3054 3054 3054 3054 3055 3055 3056 3056 3057 3057 3058 3058 3058 3058 3059 3059 3060 3060 3061 3061 3061 3062 3062 3062 3063 3063 3063 3064 3064 3064 3064 3064 3064 3064 3064 3063 3063 3064 3064 3064 3064 3065 3064 3064 3064
3047 3047 3047 3047 3048 3048 3047 3047 3047 3047 3047 3047 3048 3048 3049 3049 3049 3050 3051 3051 3051 3051 3052 3052 3052 3052 3052 3052 3052 3053 3053 3054 3054 3054 3055 3055 3056 3056 3057 3057 3058 3058 3059 3059 3059 3060 3060 3060 3060 3060 3060 3061 3061 3061 3061 3061 3061 3061 3061 3061 3061 3061 3061 3061 3062 3062 3061 3061 3060
3044 3044 3044 3044 3044 3044 3044 3044 3044 3044 3044 3044 3044 3045 3045 3046 3047 3047 3048 3048 3049 3049 3049 3049 3049 3049 3049 3049 3050 3050 3050 3051 3051 3052 3053 3053 3054 3054 3054 3055 3055 3056 3056 3057 3057 3058 3058 3058 3058 3058 3058 3058 3058 3058 3058 3059 3058 3058 3058 3058 3058 3058 3058 3059 3059 3059 3058 3058 3058
3041 3041 3041 3041 3041 3041 3041 3041 3041 3041 3041 3041 3042 3042 3043 3043 3044 3044 3045 3045 3046 3046 3046 3047 3047 3047 3047 3047 3047 3047 3048 3049 3049 3049 3050 3051 3051 3052 3052 3053 3053 3054 3054 3054 3055 3055 3055 3055 3056 3056 3056 3055 3055 3055 3056 3056 3056 3056 3056 3056 3056 3056 3056 3056 3056 3056 3056 3056 3056
3038 3038 3038 3038 3038 3038 3038 3037 3037 3038 3038 3038 3039 3039 3039 3039 3040 3041 3042 3042 3043 3043 3044 3044 3044 3044 3044 3044 3044 3045 3045 3046 3047 3047 3048 3049 3049 3050 3050 3050 3051 3051 3052 3052 3052 3053 3053 3053 3053 3053 3053 3053 3053 3053 3053 3053 3053 3053 3053 3053 3053 3053 3053 3054 3054 3054 3054 3054 3054
3035 3035 3035 3035 3035 3034 3034 3034 3034 3034 3034 3034 3035 3036 3036 3036 3037 3038 3039 3039 3040 3040 3040 3041 3041 3041 3042 3042 3042 3043 3043 3044 3044 3045 3046 3046 3047 3047 3048 3048 3049 3049 3049 3049 3050 3050 3050 3051 3051 3050 3050 3050 3050 3050 3050 3050 3050 3050 3051 3051 3051 3051 3051 3051 3051 3052 3052 3052 3052
3031 3031 3031 3031 3031 3031 3031 3031 3031 3031 3031 3032 3032 3033 3033 3033 3034 3034 3035 3036 3037 3037 3038 3038 3038 3039 3039 3039 3039 3040 3041 3041 3042 3043 3044 3044 3044 3045 3045 3046 3046 3046 3046 3047 3047 3048 3048 3048 3048 3048 3048 3048 3048 3048 3048 3048 3048 3048 3048 3048 3048 3048 3048 3049 3049 3049 3049 3049 3049
3027 3027 3027 3028 3028 3028 3028 3028 3028 3028 3028 3029 3029 3029 3029 3030 3030 3031 3032 3034 3034 3034 3035 3035 3035 3036 3036 3037 3037 3038 3038 3039 3040 3040 3041 3042 3042 3043 3043 3043 3043 3044 3044 3044 3045 3045 3045 3045 3045 3045 3045 3045 3045 3045 3045 3045 3045 3045 3046 3046 3046 3046 3046 3047 3047 3047 3047 3047 3047
3024 3024 3024 3024 3024 3024 3024 3024 3024 3024 3025 3025 3026 3026 3026 3027 3028 3029 3029 3030 3031 3032 3032 3032 3033 3033 3034 3034 3034 3035 3036 3037 3037 3038 3039 3039 3040 3040 3040 3041 3041 3041 3041 3042 3043 3043 3043 3042 3042 3042 3042 3042 3042 3043 3043 3043 3043 3043 3043 3043 3043 3043 3044 3044 3044 3044 3044 3044 3044
3021 3021 3021 3021 3021 3021 3021 3021 3021 3022 3022 3022 3023 3023 3024 3024 3025 3026 3027 3028 3028 3029 3029 3029 3030 3030 3031 3031 3032 3033 3033 3034 3035 3035 3036 3037 3037 3037 3038 3038 3039 3039 3039 3039 3040 3040 3039 3039 3039 3039 3039 3040 3040 3040 3040 3039 3039 3040 3040 3040 3040 3040 3041 3041 3041 3041 3042 3042 3042
3018 3018 3018 3019 3019 3019 3019 3019 3019 3019 3019 3019 3019 3020 3021 3021 3022 3023 3024 3025 3025 3026 3026 3027 3027 3028 3028 3029 3029 3030 3031 3032 3032 3033 3034 3034 3035 3035 3035 3036 3036 3037 3037 3037 3037 3037 3037 3037 3036 3037 3037 3037 3037 3037 3037 3037 3037 3037 3037 3037 3037 3037 3038 3038 3039 3039 3039 3039 3039
3015 3015 3015 3016 3016 3016 3016 3016 3016 3016 3016 3016 3017 3017 3018 3019 3019 3020 3021 3022 3023 3023 3024 3024 3025 3025 3026 3026 3027 3028 3029 3029 3030 3031 3031 3032 3032 3033 3033 3034 3034 3034 3034 3034 3034 3034 3034 3034 3034 3034 3034 3034 3034 3034 3034 3034 3034 3034 3034 3034 3034 3034 3035 3035 3036 3036 3036 3036 3037
3013 3013 3013 3013 3013 3013 3013 3013 3013 3013 3013 3013 3014 3014 3015 3016 3017 3018 3018 3019 3020 3020 3021 3022 3022 3023 3024 3024 3025 3025 3026 3027 3028 3028 3029 3029 3030 3031 3031 3032 3032 3032 3031 3031 3031 3031 3032 3032 3032 3032 3032 3032 3032 3032 3032 3032 3031 3031 3031 3032 3032 3032 3033 3033 3033 3034 3034 3034 3034
3010 3010 3010 3010 3010 3010 3010 3010 3010 3010 3010 3010 3011 3012 3012 3013 3014 3015 3016 3016 3017 3018 3019 3019 3020 3020 3021 3022 3022 3023 3024 3025 3025 3026 3027 3027 3028 3028 3029 3029 3029 3029 3028 3028 3029 3029 3029 3029 3029 3029 3029 3029 3029 3029 3029 3029 3029 3029 3029 3030 3030 3030 3030 3031 3031 3032 3032 3033 3033
3008 3008 3008 3007 3007 3007 3007 3007 3007 3007 3007 3008 3008 3009 3010 3011 3012 3013 3013 3014 3015 3016 3017 3017 3018 3018 3019 3019 3020 3021 3022 3022 3023 3024 3024 3025 3025 3026 3026 3026 3026 3026 3026 3026 3027 3027 3028 3028 3027 3027 3027 3027 3027 3027 3027 3027 3027 3028 3028 3028 3028 3029 3029 3029 3029 3030 3030 3031 3031
3006 3006 3005 3005 3005 3005 3005 3005 3005 3005 3005 3006 3006 3007 3008 3009 3009 3010 3011 3012 3013 3014 3015 3015 3016 3017 3017 3018 3018 3019 3020 3020 3021 3022 3022 3023 3023 3023 3023 3023 3023 3023 3024 3024 3025 3025 3025 3025 3025 3024 3024 3024 3025 3025 3025 3025 3025 3026 3026 3026 3026 3026 3027 3027 3028 3028 3029 3029 3029
3004 3004 3004 3003 3003 3003 3003 3003 3003 3003 3004 3004 3004 3005 3006 3007 3007 3008 3009 3010 3011 3012 3013 3014 3014 3015 3015 3016 3016 3017 3018 3018 3019 3019 3020 3020 3020 3021 3021 3021 3021 3022 3022 3023 3023 3023 3023 3023 3023 3023 3023 3023 3023 3023 3023 3023 3024 3024 3024 3024 3024 3025 3025 3026 3026 3027 3027 3027 3027
3002 3002 3002 3002 3002 3002 3001 3001 3002 3002 3002 3003 3003 3004 3004 3005 3005 3006 3007 3008 3009 3009 3010 3012 3012 3013 3014 3014 3015 3015 3015 3016 3016 3017 3017 3018 3018 3019 3019 3019 3020 3020 3021 3021 3021 3021 3021 3021 3021 3020 3021 3021 3021 3021 3021 3021 3022 3022 3022 3022 3023 3023 3024 3024 3024 3025 3025 3025 3026
3001 3001 3000 3000 3000 3000 3000 3000 3001 3001 3001 3002 3002 3003 3003 3004 3004 3004 3005 3006 3007 3008 3008 3009 3009 3010 3011 3012 3012 3013 3013 3014 3014 3015 3015 3016 3016 3017 3017 3018 3018 3019 3019 3019 3019 3019 3019 3019 3019 3019 3019 3019 3019 3019 3019 3019 3020 3020 3020 3021 3021 3022 3022 3023 3023 3024 3024 3024 3024
2999 2999 2999 2999 2999 2999 2999 2999 3000 3000 3001 3001 3001 3002 3002 3002 3003 3003 3004 3004 3005 3006 3006 3007 3007 3008 3009 3009 3010 3010 3011 3012 3013 3013 3014 3014 3015 3015 3016 3016 3016 3016 3016 3016 3016 3016 3016 3016 3017 3017 3017 3017 3017 3018 3018 3018 3019 3019 3019 3020 3020 3021 3021 3021 3022 3022 3023 3023 3023
2998 2998 2998 2998 2998 2998 2999 2999 2999 2999 3000 3000 3000 3001 3001 3001 3002 3002 3003 3003 3004 3004 3005 3005 3006 3006 3007 3008 3008 3009 3010 3010 3011 3012 3012 3013 3013 3014 3014 3014 3014 3014 3014 3014 3014 3014 3014 3014 3015 3015 3015 3016 3016 3016 3017 3017 3018 3018 3018 3019 3019 3020 3020 3020 3021 3021 3021 3021 3020
2997 2997 2997 2997 2997 2998 2998 2998 2998 2999 2999 2999 2999 3000 3000 3000 3001 3001 3001 3002 3002 3003 3004 3004 3004 3005 3005 3006 3007 3008 3009 3009 3010 3010 3011 3011 3011 3011 3011 3011 3011 3011 3011 3011 3012 3012 3013 3013 3014 3014 3014 3015 3015 3016 3016 3016 3017 3017 3018 3018 3019 3019 3019 3019 3019 3019 3019 3019 3018
2996 2996 2996 2997 2997 2997 2997 2998 2998 2998 2998 2999 2999 2999 2999 2999 2999 3000 3000 3001 3001 3002 3003 3003 3004 3004 3004 3005 3006 3006 3007 3008 3008 3009 3009 3009 3009 3009 3009 3009 3009 3009 3010 3010 3010 3011 3012 3012 3013 3014 3014 3014 3015 3015 3015 3016 3016 3017 3017 3018 3018 3018 3018 3018 3018 3017 3017 3016 3016
2995 2995 2995 2996 2996 2996 2997 2997 2997 2998 2998 2998 2998 2998 2998 2999 2999 2999 2999 3000 3000 3001 3002 3002 3003 3003 3004 3004 3005 3005 3006 3006 3007 3007 3007 3007 3007 3007 3007 3008 3008 3008 3009 3009 3010 3010 3011 3012 3013 3013 3014 3014 3014 3015 3015 3015 3016 3016 3016 3017 3017 3017 3017 3016 3016 3015 3015 3014 3013
2994 2994 2995 2995 2995 2996 2996 2996 2997 2997 2997 2997 2997 2998 2998 2998 2998 2998 2999 2999 2999 3000 3001 3001 3002 3002 3003 3003 3004 3004 3004 3005 3005 3006 3006 3006 3006 3006 3007 3007 3007 3008 3008 3009 3009 3010 3011 3012 3012 3013 3013 3014 3014 3014 3015 3015 3015 3016 3016 3016 3015 3015 3015 3014 3014 3013 3012 3011 3010
2993 2994 2994 2994 2995 2995 2996 2996 2996 2997 2997 2997 2997 2997 2997 2997 2997 2998 2998 2998 2999 2999 3000 3000 3001 3001 3002 3002 3002 3003 3003 3004 3004 3004 3005 3006 3006 3006 3006 3006 3007 3008 3008 3009 3009 3010 3011 3011 3012 3012 3013 3013 3014 3014 3014 3015 3015 3015 3014 3014 3014 3013 3013 3012 3011 3010 3009 3008 3007
2993 2993 2994 2994 2994 2995 2995 2995 2996 2996 2996 2996 2996 2996 2996 2996 2997 2997 2997 2998 2998 2999 2999 2999 3000 3000 3001 3001 3002 3002 3003 3004 3004 3005 3005 3005 3006 3006 3006 3006 3007 3008 3009 3009 3010 3010 3011 3011 3012 3013 3013 3013 3014 3014 3014 3014 3014 3013 3013 3012 3011 3010 3009 3009 3008 3007 3006 3005 3004
2993 2993 2993 2994 2994 2994 2994 2995 2995 2995 2995 2995 2995 2996 2996 2996 2996 2997 2997 2997 2998 2998 2999 2999 2999 3000 3001 3001 3002 3003 3004 3004 3005 3005 3005 3005 3005 3006 3006 3007 3008 3008 3009 3009 3010 3011 3011 3012 3012 3012 3013 3013 3013 3013 3012 3012 3011 3011 3010 3009 3009 3008 3007 3006 3005 3004 3004 3003 3002
2993 2993 2994 2994 2994 2994 2994 2994 2994 2994 2994 2995 2995 2995 2996 2996 2997 2997 2997 2998 2999 2999 2999 3000 3000 3001 3002 3003 3003 3004 3004 3004 3004 3004 3005 3005 3005 3006 3007 3008 3008 3009 3009 3010 3010 3011 3011 3011 3012 3012 3012 3011 3011 3011 3010 3010 3009 3008 3008 3007 3006 3005 3005 3004 3003 3002 3001 3000 2999
2994 2994 2994 2994 2994 2994 2994 2994 2994 2994 2995 2995 2996 2996 2997 2997 2998 2998 2999 2999 3000 3000 3001 3002 3002 3003 3003 3004 3004 3004 3004 3004 3004 3004 3005 3006 3006 3007 3007 3008 3009 3009 3009 3010 3010 3010 3011 3011 3011 3010 3010 3010 3009 3009 3008 3008 3007 3006 3006 3005 3004 3004 3003 3002 3001 2999 2998 2997 2996